Skagway, AK

4:48 PM AKST on January 19, 2017 (GMT -0900)
Skagway

Weather History for PAGY - January, 2012

Change the Weather History Date:

Sunday, January 22, 2012

  Actual Average Record
Temperature  
Mean Temperature 19 °F -  
Max Temperature 28 °F 26 °F 48 °F (2014)
Min Temperature 10 °F 19 °F -4 °F (1971)
Degree Days  
Heating Degree Days 46    
Moisture  
Dew Point 16 °F    
Average Humidity 87    
Maximum Humidity 100    
Minimum Humidity 75    
Precipitation  
Precipitation 0.04 in - - ()
Sea Level Pressure  
Sea Level Pressure 29.10 in    
Wind  
Wind Speed 8 mph (NE)    
Max Wind Speed 20 mph    
Max Gust Speed 29 mph    
Visibility 4 miles    
Events Fog , Snow    
Averages and records for this station are not official NWS values.
T = Trace of Precipitation, MM = Missing Value Source: NWS Daily Summary

Daily Weather History Graph

Daily Weather History Graph

Search for Another Location

Airport or City:

Trip Planner

Search our weather history database for the weather conditions in past years. The results will help you decide how hot, cold, wet, or windy it might be!

Date:

Astronomy

Jan. 22, 2012 Rise Set
Actual Time 8:33 AM AKST 3:52 PM AKST
Civil Twilight 7:44 AM AKST 4:42 PM AKST
Nautical Twilight 6:52 AM AKST 5:33 PM AKST
Astronomical Twilight 6:03 AM AKST 6:22 PM AKST
Moon 7:52 AM AKST (1/22) 3:50 PM AKST (1/22)
Length of Visible Light 8h 57m
Length of Day
7h 19m
Waning Crescent, 0% of the Moon is Illuminated
Jan 22
Waning Crescent
Jan 22
New
Jan 30
First Quarter
Feb 7
Full
Feb 14
Last Quarter

Hourly Weather History & Observations

Time (AKST) Temp. Windchill Dew Point Humidity Pressure Visibility Wind Dir Wind Speed Gust Speed Precip Events Conditions
12:09 AM 10.4 °F -7.2 °F 5.0 °F 79% 29.03 in 0.8 mi NE 17.3 mph 28.8 mph 0.00 in Snow Light Snow
12:53 AM 10.9 °F -7.5 °F 7.0 °F 84% 29.04 in 0.8 mi NE 19.6 mph 24.2 mph 0.00 in Snow Light Snow
1:05 AM 10.4 °F -6.0 °F 6.8 °F 85% 29.04 in 1.0 mi NE 15.0 mph 24.2 mph 0.00 in Snow Light Snow
1:22 AM 12.2 °F -3.7 °F 6.8 °F 79% 29.04 in 1.5 mi NE 15.0 mph 25.3 mph 0.01 in Snow Light Snow
1:41 AM 12.2 °F -5.3 °F 6.8 °F 79% 29.04 in 2.5 mi NE 18.4 mph 23.0 mph 0.01 in Snow Light Snow
1:53 AM 12.2 °F -2.5 °F 6.8 °F 79% 29.04 in 2.0 mi NE 12.7 mph - N/A Snow Light Snow
2:07 AM 12.2 °F -2.5 °F 6.8 °F 79% 29.05 in 1.5 mi NE 12.7 mph 24.2 mph 0.00 in Snow Light Snow
2:11 AM 12.2 °F -1.0 °F 6.8 °F 79% 29.05 in 1.0 mi NNE 10.4 mph 20.7 mph 0.00 in Snow Light Snow
2:25 AM 12.2 °F 1.7 °F 8.6 °F 85% 29.05 in 0.8 mi NE 6.9 mph - 0.00 in Snow Light Snow
2:31 AM 12.2 °F -1.8 °F 8.6 °F 85% 29.05 in 1.5 mi ENE 11.5 mph - 0.00 in Snow Light Snow
2:40 AM 12.2 °F 0.7 °F 8.6 °F 85% 29.06 in 2.5 mi NE 8.1 mph 17.3 mph 0.00 in Snow Light Snow
2:49 AM 14.0 °F 1.2 °F 8.6 °F 79% 29.05 in 3.0 mi NE 10.4 mph - 0.00 in Snow Light Snow
3:05 AM 14.0 °F 8.2 °F 8.6 °F 79% 29.06 in 5.0 mi NNE 3.5 mph - 0.00 in Snow Light Snow
3:46 AM 12.2 °F - 8.6 °F 85% 29.07 in 1.8 mi Calm Calm - 0.00 in Snow Light Snow
3:53 AM 12.9 °F - 9.0 °F 84% 29.07 in 1.2 mi Calm Calm - 0.00 in Snow Light Snow
4:07 AM 12.2 °F 6.1 °F 10.4 °F 92% 29.07 in 1.5 mi NE 3.5 mph - 0.01 in Snow Light Snow
4:21 AM 12.2 °F 6.1 °F 10.4 °F 92% 29.07 in 2.0 mi ENE 3.5 mph - 0.01 in Snow Light Snow
4:38 AM 12.2 °F - 10.4 °F 92% 29.08 in 3.0 mi Calm Calm - 0.01 in Snow Light Snow
4:53 AM 14.0 °F - 10.9 °F 88% 29.08 in 3.0 mi Calm Calm - 0.01 in Snow Light Snow
5:44 AM 14.0 °F - 10.4 °F 86% 29.11 in 4.0 mi Calm Calm - 0.00 in   Overcast
5:53 AM 14.0 °F 6.5 °F 10.9 °F 88% 29.11 in 5.0 mi NNE 4.6 mph - 0.00 in   Overcast
6:08 AM 14.0 °F 5.1 °F 10.4 °F 86% 29.11 in 2.5 mi NNE 5.8 mph - 0.00 in Snow Light Snow
6:17 AM 14.0 °F 5.1 °F 10.4 °F 86% 29.11 in 3.0 mi NE 5.8 mph - 0.00 in Snow Light Snow
6:38 AM 14.0 °F 6.5 °F 10.4 °F 86% 29.11 in 6.0 mi NE 4.6 mph - 0.00 in   Overcast
6:53 AM 14.0 °F - 12.0 °F 92% 29.12 in 8.0 mi Calm Calm - 0.00 in   Overcast
7:34 AM 15.8 °F - 12.2 °F 86% 29.12 in 5.0 mi Calm Calm - 0.00 in   Overcast
7:53 AM 15.1 °F 9.4 °F 12.0 °F 88% 29.12 in 2.0 mi NNE 3.5 mph - 0.00 in Snow Light Snow
8:00 AM 15.8 °F - 12.2 °F 86% 29.12 in 2.0 mi Calm Calm - 0.00 in Snow Light Snow
8:11 AM 15.8 °F 10.2 °F 12.2 °F 86% 29.12 in 1.2 mi NE 3.5 mph - 0.00 in Snow Light Snow
8:21 AM 15.8 °F - 12.2 °F 86% 29.13 in 1.5 mi Calm Calm - 0.01 in Snow Light Snow
8:25 AM 15.8 °F - 12.2 °F 86% 29.13 in 2.0 mi Calm Calm - 0.01 in Snow Light Snow
8:40 AM 15.8 °F 10.2 °F 12.2 °F 86% 29.13 in 3.0 mi NE 3.5 mph - 0.01 in Snow Light Snow
8:53 AM 16.0 °F 10.4 °F 12.9 °F 88% 29.13 in 2.5 mi NNE 3.5 mph - 0.01 in Snow Light Snow
9:15 AM 15.8 °F 10.2 °F 12.2 °F 86% 29.13 in 1.2 mi NNE 3.5 mph - 0.00 in Snow Light Snow
9:24 AM 17.6 °F 12.3 °F 15.8 °F 93% 29.13 in 1.5 mi ENE 3.5 mph - 0.00 in Snow Light Snow
9:29 AM 17.6 °F 12.3 °F 14.0 °F 86% 29.13 in 2.0 mi NE 3.5 mph - 0.00 in Snow Light Snow
9:48 AM 17.6 °F - 14.0 °F 86% 29.12 in 4.0 mi Calm Calm - 0.00 in Snow Light Snow
9:53 AM 17.1 °F - 15.1 °F 92% 29.13 in 6.0 mi Calm Calm - 0.00 in   Overcast
10:44 AM 19.4 °F - 17.6 °F 93% 29.12 in 6.0 mi Calm Calm - 0.00 in Snow Light Snow
10:53 AM 21.0 °F - 18.0 °F 88% 29.13 in 9.0 mi Calm Calm - 0.00 in   Overcast
11:08 AM 21.2 °F - 17.6 °F 86% 29.12 in 10.0 mi Calm Calm - N/A   Overcast
11:22 AM 23.0 °F 15.8 °F 19.4 °F 86% 29.12 in 10.0 mi North 5.8 mph - N/A   Overcast
11:53 AM 24.1 °F - 21.0 °F 88% 29.12 in 4.0 mi Calm Calm - 0.00 in Snow Light Snow
12:02 PM 24.8 °F - 21.2 °F 86% 29.12 in 7.0 mi Calm Calm - 0.00 in Snow Light Snow
12:15 PM 24.8 °F - 21.2 °F 86% 29.12 in 1.8 mi Calm Calm - 0.00 in Snow Light Snow
12:23 PM 24.8 °F - 21.2 °F 86% 29.12 in 1.0 mi Calm Calm - 0.00 in Snow Light Snow
12:45 PM 26.6 °F - 23.0 °F 86% 29.12 in 0.8 mi Calm Calm - 0.00 in Snow Light Snow
12:53 PM 26.1 °F - 24.1 °F 92% 29.12 in 1.5 mi Calm Calm - 0.00 in Snow Light Snow
1:00 PM 26.6 °F - 24.8 °F 93% 29.12 in 3.0 mi Calm Calm - 0.00 in Snow Light Snow
1:17 PM 28.4 °F - 26.6 °F 93% 29.12 in 1.8 mi Calm Calm - 0.00 in Snow Light Snow
1:25 PM 26.6 °F - 24.8 °F 93% 29.12 in 1.8 mi Calm Calm - 0.01 in Snow Light Snow
1:29 PM 28.4 °F 21.2 °F 24.8 °F 86% 29.12 in 3.0 mi NE 6.9 mph - 0.01 in Snow Light Snow
1:53 PM 28.0 °F 18.6 °F 25.0 °F 88% 29.11 in 9.0 mi NE 10.4 mph - 0.01 in Snow Light Snow
2:12 PM 28.4 °F 19.7 °F 24.8 °F 86% 29.12 in 1.5 mi NE 9.2 mph - 0.00 in Snow Light Snow
2:15 PM 28.4 °F 19.1 °F 24.8 °F 86% 29.12 in 0.8 mi NE 10.4 mph - 0.00 in Snow Light Snow
2:21 PM 28.4 °F 19.7 °F 24.8 °F 86% 29.12 in 0.2 mi NE 9.2 mph - 0.00 in Fog , Snow Heavy Snow
2:28 PM 28.4 °F 18.5 °F 24.8 °F 86% 29.12 in 0.2 mi NE 11.5 mph - 0.01 in Fog , Snow Heavy Snow
2:39 PM 26.6 °F 16.2 °F 26.6 °F 100% 29.12 in 0.8 mi NE 11.5 mph - 0.01 in Snow Light Snow
2:46 PM 26.6 °F 16.2 °F 26.6 °F 100% 29.12 in 1.0 mi NE 11.5 mph - 0.01 in Snow Light Snow
2:51 PM 28.4 °F 23.3 °F 26.6 °F 93% 29.12 in 2.0 mi Variable 4.6 mph - 0.01 in Snow Light Snow
2:53 PM 28.0 °F - 27.0 °F 96% 29.12 in 2.5 mi Calm Calm - 0.01 in Snow Light Snow
2:56 PM 28.4 °F - 28.4 °F 100% 29.12 in 3.0 mi Calm Calm - 0.00 in Snow Light Snow
3:05 PM 28.4 °F 22.2 °F 28.4 °F 100% 29.12 in 4.0 mi ENE 5.8 mph - 0.00 in Snow Light Snow
3:53 PM 28.0 °F 22.8 °F 24.1 °F 85% 29.11 in 10.0 mi NNE 4.6 mph - 0.00 in   Overcast
4:53 PM 28.0 °F - 24.1 °F 85% 29.12 in 9.0 mi Calm Calm - 0.00 in   Overcast
5:46 PM 24.8 °F 17.9 °F 19.4 °F 80% 29.11 in 10.0 mi East 5.8 mph - 0.00 in   Scattered Clouds
5:53 PM 24.1 °F 17.0 °F 19.9 °F 84% 29.11 in 10.0 mi NE 5.8 mph - 0.00 in   Scattered Clouds
6:53 PM 23.0 °F 15.8 °F 18.0 °F 81% 29.12 in 10.0 mi ENE 5.8 mph - N/A   Mostly Cloudy
7:53 PM 24.1 °F - 19.0 °F 81% 29.13 in 10.0 mi Calm Calm - N/A   Mostly Cloudy
8:53 PM 25.0 °F 20.7 °F 18.0 °F 75% 29.13 in 10.0 mi NNW 3.5 mph - N/A   Mostly Cloudy
9:53 PM 19.0 °F 13.9 °F 15.1 °F 85% 29.13 in 10.0 mi NNE 3.5 mph - N/A   Clear
10:53 PM 23.0 °F 18.4 °F 17.1 °F 78% 29.13 in 10.0 mi East 3.5 mph - N/A   Clear
11:53 PM 19.9 °F - 15.1 °F 81% 29.14 in 10.0 mi Calm Calm - N/A   Clear